Preview of NWS' New Version of Forecast
This preview is not operational and should not be used for support decisions.
Latest weather observations around

Los Angeles / USC Campus Downtown (KCQT)

Using English Units (Switch to International System of Units)
Date/ Time (PDT) Wind (mph) Vis. (mi) Weather Sky Cond. Temp (°F) Rel. Humidity Wind Chill (°F) Heat Index (°F) Pressure Precip. (in)
Air Dwpt 6 hour Altimeter (inHg) Sea level (inHg) 1 hr 3 hr 6 hr
Max Min
Jun 19 03:52 Calm 9 Cloudy OVC014 65 58     78%     29.95 29.94      
Jun 19 02:52 Calm 10 Cloudy OVC013 65 58     78%     29.96 29.95      
Jun 19 01:52 W 3 10 Cloudy OVC013 65 58     78%     29.97 29.96      
Jun 19 00:52 Calm 10 Cloudy OVC013 65 58     78%     29.98 29.97      
Jun 18 23:52 Calm 10 Cloudy OVC014 65 59     81%     29.99 29.98      
Jun 18 22:52 W 5 10 Cloudy OVC012 65 59     81%     29.99 29.98      
Jun 18 21:52 3 10 Cloudy OVC011 65 59     81%     29.98 29.98      
Jun 18 20:52 W 5 10 Cloudy OVC013 66 58     75%     29.96 29.96      
Jun 18 19:52 W 3 10 Cloudy OVC014 66 58     75%     29.96 29.95      
Jun 18 19:40 W 3 10 Cloudy OVC014 67 58     73%     29.95        
Jun 18 18:52 5 10 Mostly Cloudy BKN016 67 58     73%     29.94 29.93      
Jun 18 18:37 3 10 Mostly Cloudy BKN017 68 58     70%     29.93        
Jun 18 17:52 6 10 Mostly Clear FEW020 70 59     68%     29.92 29.92      
Jun 18 16:52 W 5 10 Mostly Clear FEW021 70 59     68%     29.93 29.93      
Jun 18 16:24 5 10 Partly Cloudy SCT021 71 58     63%   71 29.93        
Jun 18 16:19 W 6 10 Mostly Cloudy BKN021 71 58     63%   71 29.94        
Jun 18 16:06 5 10 Partly Cloudy SCT023 71 58     63%   71 29.94        
Jun 18 15:52 W 7 10 Mostly Cloudy BKN024 71 58     63%   71 29.94 29.93      
Jun 18 15:46 Calm 10 Mostly Cloudy BKN024 71 58     63%   71 29.95        
Jun 18 15:08 WSW 3 10 Partly Cloudy SCT024 72 58     61%   72 29.95        
Jun 18 15:05 W 6 10 Mostly Cloudy BKN024 72 58     61%   72 29.95        
Jun 18 14:28 W 7 10 Partly Cloudy SCT024 71 58     63%   71 29.96        
Jun 18 13:52 Calm 10 Cloudy OVC024 71 58     63%   71 29.96 29.96      
Jun 18 12:52 3 9 Cloudy OVC023 70 58     66%     29.97 29.96      
Jun 18 11:52 3 8 Cloudy OVC022 69 58     68%     29.97 29.97      
Jun 18 10:52 Calm 9 Cloudy OVC020 68 57     68%     29.97 29.96      
Jun 18 09:47 3 9 Cloudy OVC015 65 57     76%     29.96 29.96      
Jun 18 09:14 Calm 9 Cloudy OVC015 65 57     76%     29.95        
Jun 18 08:47 Calm 7 Cloudy OVC014 65 58     78%     29.95 29.95      
Jun 18 07:47 Calm 5 Haze OVC014 64 57     78%     29.94 29.93      
Jun 18 06:47 Calm 5 Haze OVC013 64 57     78%     29.93 29.93      
Jun 18 05:47 Calm 7 Cloudy OVC013 63 57     81%     29.92 29.91      
Jun 18 04:47 Calm 10 Cloudy OVC014 64 57     78%     29.9 29.9      
Jun 18 03:47 Calm 9 Cloudy OVC013 64 58     81%     29.89 29.89      
Jun 18 02:47 W 3 10 Cloudy OVC014 65 57     76%     29.89 29.89      
Jun 18 01:47 Calm 10 Cloudy OVC014 65 58     78%     29.9 29.89      
Jun 18 01:40 Calm 10 Cloudy OVC014 65 58     78%     29.9        
Jun 18 00:47 Calm 10 Cloudy OVC015 65 57     76%     29.9 29.89      
Jun 17 23:47 Calm 10 Cloudy OVC017 65 58     78%     29.91 29.9      
Jun 17 22:47 Calm 10 Cloudy OVC019 65 57     76%     29.91 29.9      
Jun 17 21:47 Calm 10 Cloudy OVC020 65 57     76%     29.91 29.91      
Jun 17 20:58 Calm 10 Mostly Cloudy BKN021 65 57     76%     29.9        
Jun 17 20:47 3 10 Partly Cloudy SCT021 66 58     75%     29.9 29.89      
Jun 17 19:47 W 6 10 Partly Cloudy SCT026 67 57     71%     29.89 29.88      
Jun 17 19:13 5 10 Mostly Cloudy BKN026 70 58     66%     29.88        
Jun 17 19:05 Calm 10 Partly Cloudy SCT026 69 58     68%     29.88        
Jun 17 18:47 WSW 5 10 Mostly Cloudy BKN026 70 58     66%     29.87 29.86      
Jun 17 18:38 Calm 10 Mostly Cloudy BKN026 70 58     66%     29.87        
Jun 17 17:47 Calm 10 Partly Cloudy SCT029 71 58     63%   71 29.86 29.86      
Jun 17 16:56 Calm 10 Mostly Cloudy BKN029 71 58     63%   71 29.87        
Jun 17 16:47 Calm 10 Mostly Cloudy BKN030 72 59     64%   72 29.87 29.86      
Jun 17 15:51 Calm 10 Cloudy OVC030 72 58     61%   72 29.88        
Jun 17 15:14 Calm 10 Cloudy BKN026 OVC032 71 58     63%   71 29.89        
Jun 17 14:47 3 10 Cloudy OVC030 71 58     63%   71 29.89 29.88      
Jun 17 14:42 3 10 Cloudy OVC030 71 58     63%   71 29.89        
Jun 17 12:47 Calm 10 Cloudy OVC026 70 59     68%     29.9 29.9      
Jun 17 11:47 Calm 10 Cloudy OVC024 69 58     68%     29.91 29.9      
Jun 17 10:47 Calm 10 Cloudy OVC019 67 58     73%     29.9 29.9      
Jun 17 09:47 Calm 10 Cloudy BKN019 OVC024 67 58     73%     29.9 29.89      
Jun 17 09:23 Calm 9 Cloudy OVC017 65 58     78%     29.9        
Jun 17 08:47 Calm 10 Cloudy BKN013 OVC019 65 58     78%     29.89 29.88      
Jun 17 07:53 Calm 10 Cloudy OVC014 64 58     81%     29.88        
Jun 17 07:47 Calm 10 Cloudy OVC016 64 58     81%     29.88 29.88      
Jun 17 07:17 Calm 9 Cloudy SCT011 OVC018 64 58     81%     29.88        
Jun 17 06:47 W 5 9 Cloudy OVC014 63 58     84%     29.87 29.87      
Jun 17 06:33 Calm 9 Cloudy FEW009 OVC014 64 58     81%     29.87        
Jun 17 06:18 Calm 9 Cloudy OVC014 63 58     84%     29.87        
Jun 17 05:47 Calm 10 Cloudy FEW010 OVC016 63 58     84%     29.86 29.86      
Jun 17 05:16 Calm 10 Cloudy OVC014 63 58     84%     29.86        
Jun 17 04:47 Calm 10 Cloudy FEW011 OVC017 63 58     84%     29.85 29.85      
Jun 17 03:47 Calm 8 Cloudy FEW010 OVC020 63 58     84%     29.85 29.84      
Jun 17 03:35 Calm 6 Haze SCT010 OVC018 63 58     84%     29.85        
Jun 17 02:47 Calm 10 Cloudy OVC014 63 57     81%     29.86 29.85      
Jun 17 02:08 3 10 Cloudy OVC014 64 57     78%     29.86        
Jun 17 01:47 Calm 9 Cloudy OVC015 64 57     78%     29.87 29.86      
Jun 17 00:47 Calm 10 Cloudy OVC016 64 57     78%     29.87 29.87      
Jun 16 23:47 Calm 10 Cloudy OVC016 64 57     78%     29.88 29.87      
Jun 16 22:47 Calm 7 Clear   64 57     78%     29.88 29.88      
Jun 16 21:47 W 6 10 Cloudy OVC016 65 56     73%     29.88 29.87      
Jun 16 20:47 W 3 10 Cloudy OVC018 66 56     70%     29.87 29.86      
Jun 16 19:47 Calm 10 Cloudy OVC019 67 57     71%     29.86 29.85      
Jun 16 18:47 5 10 Cloudy OVC019 68 57     68%     29.85 29.84      
Jun 16 18:21 W 3 10 Mostly Cloudy BKN019 68 58     70%     29.85        
Jun 16 17:47 WSW 5 10 Partly Cloudy SCT019 69 58     68%     29.84 29.84      
Jun 16 17:14   10 Mostly Cloudy BKN021 70 59     68%     29.84        
Jun 16 17:04 WSW 3 10 Partly Cloudy SCT022 70 59     68%     29.84        
Jun 16 16:59 3 10 Mostly Cloudy BKN022 71 59     66%   71 29.84        
Jun 16 16:47 3 10 Mostly Clear FEW022 71 59     66%   71 29.84 29.84      
Jun 16 15:47 Calm 10 Mostly Clear FEW025 72 59     64%   72 29.85 29.84      
Jun 16 14:47 3 10 Mostly Clear FEW023 71 59     66%   71 29.86 29.85      
Jun 16 14:43 Calm 10 Partly Cloudy SCT023 71 59     66%   71 29.86        
Jun 16 13:47 3 10 Cloudy OVC021 71 59     66%   71 29.88 29.87      
Jun 16 12:47 5 8 Cloudy OVC019 69 59     70%     29.89 29.88      
Jun 16 11:47 Calm 6 Haze OVC019 68 59     73%     29.9 29.89      
Jun 16 10:47 Calm 6 Haze OVC015 67 58     73%     29.89 29.88      
Jun 16 08:47 Calm 6 Haze OVC016 66 57     73%     29.89 29.89      
Jun 16 07:47 Calm 5 Haze OVC015 65 58     78%     29.89 29.88      
Jun 16 07:31 Calm 6 Haze OVC015 65 57     76%     29.88        
Jun 16 06:47 Calm 5 Haze OVC014 65 57     76%     29.88 29.87      
Jun 16 05:47 Calm 8 Cloudy OVC014 65 57     76%     29.87 29.87      
Jun 16 04:47 Calm 8 Cloudy OVC014 65 57     76%     29.87 29.86      
Jun 16 03:47 Calm 8 Cloudy OVC015 65 57     76%     29.87 29.86      
Jun 16 03:23 Calm 8 Cloudy OVC015 65 57     76%     29.87        
May 15 01:47 E 5 10 Clear   59 53     81%     29.99 29.98      
May 14 22:47 Calm 10 Clear CLR 60 53     78%     29.99 29.98      
May 14 09:54 5 10 Mostly Cloudy BKN025 68 54     61%     29.98        
May 13 11:47 Calm 6 Light Rain and Fog/Mist BKN012 OVC018 59 56     90%     30.07 30.07 0    
May 13 00:05 Calm 10 Cloudy BKN025 BKN031 OVC050 61 51     70%     30.01        
May 12 12:47 3 10 Cloudy SCT032 SCT040 OVC048 66 51     59%     29.98 29.97      
May 12 07:47 3 10 Cloudy FEW038 OVC050 60 52     75%     29.94 29.94      
May 12 05:00 Calm 4 Light Rain and Fog/Mist FEW009 OVC020 58 55     90%     29.91   0    
May 12 01:25 3 10 Cloudy SCT014 BKN020 OVC038 61 54     78%     29.88        
May 12 01:09 Calm 10 Clear   61 54     78%     29.88        
May 11 19:06 3 10 Cloudy BKN022 OVC030 62 53     72%     29.82        
Jun 11 20:47 W 3 10 Clear CLR 64 50     60%     29.93 29.93      
Jun 11 13:22 3 10 Clear   69 56     63%     29.91        
Jun 11 12:10 Calm 10 Cloudy BKN025 OVC039 69 56     63%     29.91        
Notice The following observation data may not be complete
Jun 11 10:44   10 Cloudy BKN028 BKN038 OVC055          %              
Jun 11 04:47 SE 3 10 Cloudy OVC017 63 54     72%     29.86 29.85      
Jun 10 20:47 Calm 10 Cloudy OVC023 66 56     70%     29.85 29.84      
Jun 10 19:47 3 10 Clear   67 56     68%     29.84 29.83      
Jun 10 13:47 W 6 10 Cloudy OVC035 70 58     66%     29.87 29.87      
Jun 10 11:31   10 Cloudy BKN027 OVC034 69 57     65%     29.89        
Jun 10 11:19 5 10 Cloudy SCT025 OVC034 69 57     65%     29.88        
Jun 10 07:47 Calm 10 Cloudy OVC022 65 57     76%     29.88 29.87      
Jun 08 21:47 Calm 10 Clear   63 55     75%     29.95 29.95      
Jun 08 20:47 Calm 10 Clear CLR 64 54     70%     29.94 29.94      
Jun 08 07:47 Calm 10 Cloudy OVC016 63 59     87%     29.99 29.98      
Jun 07 12:17 W 5 8 Cloudy OVC014 67 59     76%     29.98        
Jun 07 10:28 Calm 6 Clear   66 59     78%     29.96